Flag for Norway Weather past 2 weeks in Halden, Norway

Now
61 °F

Cool.


Feels Like: 61 °F
Forecast: 49 / 62 °F
Wind: 1 mph from East

Location: Stromtangen Fyr

Current Time: Aug 23, 2014 at 2:13:32 PM

Latest Report: Aug 23, 2014 at 1:00 PM


Visibility: N/A

Pressure: 29.59 "Hg

Humidity: 70%

Dew point: 51 °F

Location of HaldenLocation

Historic Weather in Halden — Graph

°F

Halden temperature yesterday

Maximum temperature yesterday: 61 °F (at 12:00 AM)
Minimum temperature yesterday: 55 °F (at 11:00 PM)
Average temperature yesterday: 59 °F

Past Weeks' High & Low Weather Summary

 TemperatureHumidityPressure
High74 °F (Aug 9, 3:00 PM)90% (Aug 9, 5:00 AM)29.91 "Hg (Aug 9, 5:00 AM)
Low52 °F (Aug 23, 5:00 AM)51% (Aug 20, 1:00 PM)29.18 "Hg (Aug 18, 8:00 AM)
Average62 °F73%29.55 "Hg
* Reported Aug 8 12:00 Noon — Aug 23 12:00 Noon, Halden, Weather by CustomWeather, © 2014

Note: Actual official high and low records may vary slightly from our data, if they occured in-between our weather recording intervals... More about our weather records

Advertising

Halden weather history for previous 24 hours

 ConditionsComfort  
Time TempWeatherWind HumidityBarometerVisibility
12:00 PM
Aug 23
59 °FCool.2 mph78%29.58 "HgN/A
11:00 AM56 °FCool.3 mph79%29.59 "HgN/A
10:00 AM58 °FCool.3 mph83%29.58 "HgN/A
9:00 AM56 °FCool.5 mph84%29.58 "HgN/A
8:00 AM55 °FCool.3 mph82%29.57 "HgN/A
7:00 AM54 °FCool.6 mph88%29.57 "HgN/A
6:00 AM54 °FCool.6 mph87%29.57 "HgN/A
5:00 AM52 °FCool.7 mph87%29.57 "HgN/A
4:00 AM54 °FCool.6 mph89%29.58 "HgN/A
3:00 AM54 °FCool.3 mph88%29.59 "HgN/A
2:00 AM54 °FCool.5 mph88%29.60 "HgN/A
1:00 AM55 °FCool.5 mph86%29.61 "HgN/A
12:00 AM55 °FCool.5 mph86%29.62 "HgN/A
11:00 PM
Aug 22
55 °FCool.3 mph83%29.63 "HgN/A
10:00 PM56 °FCool.2 mph80%29.64 "HgN/A
9:00 PM56 °FCool.8 mph82%29.63 "HgN/A
8:00 PM60 °FCool.6 mph69%29.63 "HgN/A
7:00 PM60 °FCool.7 mph68%29.63 "HgN/A
6:00 PM60 °FCool.8 mph70%29.64 "HgN/A
5:00 PM60 °FCool.8 mph70%29.65 "HgN/A
4:00 PM60 °FCool.9 mph73%29.65 "HgN/A
3:00 PM60 °FCool.10 mph68%29.66 "HgN/A
2:00 PM57 °FCool.5 mph78%29.67 "HgN/A
Weather by CustomWeather, © 2014

See weather overviewHow to use our weather pages